Wautoma, WI

3:28 PM CST on December 09, 2019 (GMT -0600)
Wautoma

Weather History for KY50 - November, 2019

Change the Weather History Date:

Saturday, November 16, 2019

  Actual Average (KPCZ) Record (KPCZ)
Temperature  
Mean Temperature 28 °F -  
Max Temperature 39 °F 44 °F 72 °F (1953)
Min Temperature 17 °F 26 °F 7 °F (1959)
Degree Days  
Heating Degree Days 37    
Moisture  
Dew Point 25 °F    
Average Humidity 83    
Maximum Humidity 96    
Minimum Humidity 68    
Precipitation  
Precipitation 0.00 in - - ()
Sea Level Pressure  
Sea Level Pressure 30.34 in    
Wind  
Wind Speed 5 mph ()    
Max Wind Speed 14 mph    
Max Gust Speed -    
Visibility 9.8 miles    
Events      
Averages and records for this station are not official NWS values.
T = Trace of Precipitation, MM = Missing Value Source: Averaged Metar Reports

Daily Weather History Graph

Daily Weather History Graph

Search for Another Location

Airport or City:

Astronomy

Nov. 16, 2019 Rise Set
Actual Time 6:53 AM CST 4:30 PM CST
Civil Twilight 6:22 AM CST 5:01 PM CST
Nautical Twilight 5:47 AM CST 5:36 PM CST
Astronomical Twilight 5:12 AM CST 6:10 PM CST
Moon 7:59 PM CST (11/16) 10:51 AM CST (11/16)
Length of Visible Light 10h 39m
Length of Day
9h 36m
Waning Gibbous, 82% of the Moon is Illuminated
Nov 16
Waning Gibbous
Nov 19
Last Quarter
Nov 26
New
Dec 4
First Quarter
Dec 11
Full

Hourly Weather History & Observations

Time (CST) Temp. Windchill Dew Point Humidity Pressure Visibility Wind Dir Wind Speed Gust Speed Precip Events Conditions
12:56 AM 17.1 °F - 15.1 °F 92% 30.46 in 10.0 mi Calm Calm - N/A   Clear
1:56 AM 19.0 °F 12.3 °F 18.0 °F 96% 30.45 in 10.0 mi NE 4.6 mph - N/A   Clear
2:56 AM 21.0 °F 16.2 °F 18.0 °F 88% 30.45 in 10.0 mi NE 3.5 mph - N/A   Clear
3:56 AM 21.9 °F 15.7 °F 19.0 °F 89% 30.45 in 10.0 mi ENE 4.6 mph - N/A   Clear
4:56 AM 21.9 °F 17.2 °F 19.9 °F 92% 30.45 in 10.0 mi NE 3.5 mph - N/A   Clear
5:56 AM 19.9 °F 12.1 °F 18.0 °F 92% 30.45 in 9.0 mi ENE 5.8 mph - N/A   Clear
6:56 AM 18.0 °F 12.7 °F 17.1 °F 96% 30.45 in 8.0 mi NE 3.5 mph - N/A   Clear
7:56 AM 21.0 °F - 19.9 °F 96% 30.45 in 8.0 mi Calm Calm - N/A   Clear
8:56 AM 32.0 °F - 28.9 °F 88% 30.44 in 10.0 mi Calm Calm - N/A   Partly Cloudy
9:56 AM 33.1 °F 26.1 °F 28.9 °F 85% 30.42 in 10.0 mi SSE 8.1 mph - N/A   Clear
10:56 AM 36.0 °F 27.5 °F 28.9 °F 76% 30.40 in 10.0 mi SSE 12.7 mph - N/A   Partly Cloudy
11:56 AM 37.0 °F 28.5 °F 28.9 °F 73% 30.36 in 10.0 mi SE 13.8 mph - N/A   Partly Cloudy
12:56 PM 39.0 °F 31.4 °F 30.0 °F 70% 30.33 in 10.0 mi SE 12.7 mph - N/A   Clear
1:56 PM 37.9 °F 30.9 °F 28.0 °F 68% 30.30 in 10.0 mi SSE 10.4 mph - N/A   Clear
2:56 PM 37.9 °F - 28.9 °F 70% - 10.0 mi North - - N/A   Clear
3:56 PM 37.9 °F 31.5 °F 28.0 °F 68% 30.27 in 10.0 mi SSE 9.2 mph - N/A   Clear
4:56 PM 36.0 °F 30.3 °F 28.0 °F 73% 30.25 in 10.0 mi SE 6.9 mph - N/A   Clear
5:56 PM 35.1 °F 30.1 °F 28.0 °F 76% 30.24 in 10.0 mi SE 5.8 mph - N/A   Clear
6:56 PM 34.0 °F 28.8 °F 28.9 °F 82% 30.24 in 10.0 mi SE 5.8 mph - N/A   Clear
7:56 PM 33.1 °F 26.9 °F 28.0 °F 82% 30.23 in 10.0 mi SE 6.9 mph - N/A   Clear
8:56 PM 32.0 °F 26.4 °F 28.0 °F 85% 30.21 in 10.0 mi SE 5.8 mph - N/A   Clear
9:56 PM 32.0 °F 25.6 °F 27.0 °F 82% 30.20 in 10.0 mi SSE 6.9 mph - N/A   Clear
10:56 PM 32.0 °F 26.4 °F 27.0 °F 82% 30.19 in 10.0 mi SSE 5.8 mph - N/A   Clear
11:56 PM 32.0 °F 25.6 °F 28.0 °F 85% 30.17 in 9.0 mi South 6.9 mph - N/A   Clear